{"data":{"norad_id":68914,"epoch":"2026-09-19T18:53:07.647648Z","epoch_age_seconds":77083,"freshness":"FRESH","line1":"1 68914U 26097V   26262.78689407  .00045631  00000+0  14067-2 0  9997","line2":"2 68914  97.2860  96.9571 0001055  84.6946 275.4417 15.33457714 21987","mean_motion":15.33457714,"eccentricity":0.0001055,"inclination_deg":97.286,"raan_deg":96.9571,"arg_perigee_deg":84.6946,"mean_anomaly_deg":275.4417,"bstar":0.0014067,"rev_number":2198,"period_min":93.90542607424,"perigee_km":464.78334255296,"apogee_km":466.22735108814,"semimajor_km":6843.6423468206,"source":"CELESTRAK","updated_at":"2026-09-20T09:00:44.050012Z"}}